UAE56J OMDB-EGLL

Flight info

Callsign UAE56J
Flight time N/A
Altitude 38000
Route SENPA N571 ALPOB L768 ULADA Q143 MEDGO N697 BPN/N0494F360 N697 HIL A788 HLF L604 WEJ L677 CVO L617 NOZ L551 ANTAR UN133 KPC DCT FSK/N0478F380 DCT DISOR DCT LONTA UL608 DOLEV DCT BOSNA DCT MARIL DCT OKSIG DCT KUSIB DCT GORPA DCT DOL DCT NIPEL DCT MODSA DCT BABEG DCT LIRSU DCT ARCKY DCT BUB L608 LOGAN
Aircraft B77W/H-V/N

Departure

Time 2026-05-05 11:54
Airport Dubai International Airport (OMDB)

Arrival

Time N/A
Airport London Heathrow Airport (EGLL)
Time Latitude Longitude Altitude Speed Heading
2026-05-05 11:29 25.24773 55.36512 30 ft 0 kts 211°
2026-05-05 11:40 25.24778 55.36515 30 ft 2 kts 207°
2026-05-05 11:41 25.24792 55.36524 29 ft 2 kts 206°
2026-05-05 11:41 25.24807 55.36531 28 ft 2 kts 199°
2026-05-05 11:41 25.24822 55.36539 28 ft 2 kts 197°
2026-05-05 11:41 25.24838 55.36537 27 ft 2 kts 150°
2026-05-05 11:42 25.24852 55.36527 28 ft 2 kts 144°
2026-05-05 11:42 25.24865 55.36516 27 ft 2 kts 132°
2026-05-05 11:42 25.24876 55.36502 27 ft 2 kts 123°
2026-05-05 11:42 25.24884 55.36486 27 ft 2 kts 121°
2026-05-05 11:43 25.24892 55.36473 27 ft 1 kts 122°
2026-05-05 11:43 25.24893 55.36470 26 ft 0 kts 123°
2026-05-05 11:46 25.24880 55.36493 27 ft 12 kts 122°
2026-05-05 11:46 25.24830 55.36588 30 ft 15 kts 118°
2026-05-05 11:46 25.24789 55.36691 32 ft 15 kts 108°
2026-05-05 11:46 25.24765 55.36800 33 ft 15 kts 106°
2026-05-05 11:47 25.24721 55.36901 34 ft 15 kts 121°
2026-05-05 11:47 25.24667 55.36996 36 ft 15 kts 123°
2026-05-05 11:47 25.24614 55.37092 37 ft 15 kts 121°
2026-05-05 11:47 25.24561 55.37188 38 ft 15 kts 122°
2026-05-05 11:48 25.24454 55.37379 41 ft 15 kts 122°
2026-05-05 11:48 25.24402 55.37476 42 ft 15 kts 120°
2026-05-05 11:48 25.24350 55.37572 44 ft 15 kts 122°
2026-05-05 11:49 25.24296 55.37667 45 ft 15 kts 122°
2026-05-05 11:49 25.24277 55.37755 46 ft 10 kts 65°
2026-05-05 11:49 25.24325 55.37812 47 ft 10 kts 38°
2026-05-05 11:49 25.24382 55.37857 47 ft 10 kts 35°
2026-05-05 11:50 25.24433 55.37920 50 ft 13 kts 73°
2026-05-05 11:50 25.24395 55.38021 48 ft 18 kts 121°
2026-05-05 11:50 25.24311 55.38170 52 ft 29 kts 121°
2026-05-05 11:50 25.24189 55.38389 53 ft 34 kts 122°
2026-05-05 11:51 25.24070 55.38601 58 ft 32 kts 122°
2026-05-05 11:51 25.23956 55.38805 62 ft 30 kts 121°
2026-05-05 11:51 25.23841 55.38976 59 ft 26 kts 140°
2026-05-05 11:51 25.23690 55.39082 62 ft 26 kts 148°
2026-05-05 11:52 25.23549 55.39212 59 ft 27 kts 128°
2026-05-05 11:52 25.23512 55.39342 64 ft 11 kts 54°
2026-05-05 11:52 25.23575 55.39384 84 ft 11 kts 23°
2026-05-05 11:52 25.23645 55.39371 84 ft 11 kts 319°
2026-05-05 11:53 25.23653 55.39360 83 ft 0 kts 306°
2026-05-05 11:53 25.23655 55.39356 84 ft 2 kts 305°
2026-05-05 11:53 25.23680 55.39314 69 ft 22 kts 302°
2026-05-05 11:53 25.23914 55.38893 60 ft 107 kts 302°
2026-05-05 11:54 25.24444 55.37943 51 ft 180 kts 301°
2026-05-05 11:54 25.25127 55.36706 616 ft 190 kts 303°
2026-05-05 11:54 25.25793 55.35473 1457 ft 192 kts 305°
2026-05-05 11:54 25.26578 55.34184 1836 ft 213 kts 308°
2026-05-05 11:55 25.27481 55.32760 2011 ft 239 kts 307°
2026-05-05 11:55 25.28466 55.31204 2280 ft 261 kts 308°
2026-05-05 11:55 25.29460 55.29450 2764 ft 271 kts 293°
2026-05-05 11:55 25.29785 55.27397 3376 ft 275 kts 273°
2026-05-05 11:56 25.29913 55.25283 3976 ft 283 kts 274°
2026-05-05 11:56 25.30070 55.23100 4719 ft 286 kts 274°
2026-05-05 11:56 25.30239 55.20891 5455 ft 289 kts 274°
2026-05-05 11:56 25.30412 55.18648 6256 ft 290 kts 273°
2026-05-05 11:57 25.30406 55.16433 6874 ft 294 kts 265°
2026-05-05 11:57 25.30218 55.14185 7631 ft 296 kts 263°
2026-05-05 11:57 25.29999 55.11902 8310 ft 299 kts 264°
2026-05-05 11:57 25.29789 55.09619 9116 ft 300 kts 264°
2026-05-05 11:58 25.29588 55.07298 9769 ft 305 kts 264°
2026-05-05 11:58 25.29395 55.04965 10511 ft 306 kts 265°
2026-05-05 11:58 25.29204 55.02557 10804 ft 326 kts 265°
2026-05-05 11:58 25.29003 54.99973 11011 ft 349 kts 265°
2026-05-05 11:59 25.28789 54.97201 11174 ft 373 kts 265°
2026-05-05 11:59 25.28567 54.94281 11580 ft 387 kts 266°
2026-05-05 11:59 25.28451 54.91291 12288 ft 392 kts 269°
2026-05-05 11:59 25.28389 54.88257 12999 ft 397 kts 269°
2026-05-05 12:00 25.28319 54.85196 13765 ft 400 kts 269°
2026-05-05 12:00 25.28237 54.82117 14514 ft 402 kts 269°
2026-05-05 12:00 25.28146 54.79022 15256 ft 404 kts 269°
2026-05-05 12:00 25.28055 54.75906 15911 ft 407 kts 269°
2026-05-05 12:01 25.28284 54.72785 16515 ft 411 kts 283°
2026-05-05 12:01 25.29074 54.69743 17168 ft 413 kts 287°
2026-05-05 12:01 25.29929 54.66700 17830 ft 417 kts 287°
2026-05-05 12:01 25.30767 54.63612 18434 ft 421 kts 286°
2026-05-05 12:02 25.31576 54.60494 19016 ft 424 kts 285°
2026-05-05 12:02 25.32370 54.57343 19616 ft 427 kts 285°
2026-05-05 12:02 25.33163 54.54168 20221 ft 429 kts 285°
2026-05-05 12:02 25.33981 54.50987 20818 ft 432 kts 286°
2026-05-05 12:03 25.34846 54.47792 21399 ft 435 kts 287°
2026-05-05 12:03 25.35729 54.44579 21987 ft 438 kts 287°
2026-05-05 12:03 25.36605 54.41387 22557 ft 441 kts 287°
2026-05-05 12:03 25.37493 54.38129 23119 ft 444 kts 287°
2026-05-05 12:04 25.38382 54.34847 23622 ft 447 kts 286°
2026-05-05 12:04 25.39272 54.31549 24111 ft 448 kts 286°
2026-05-05 12:04 25.40163 54.28244 24619 ft 449 kts 286°
2026-05-05 12:04 25.41022 54.24922 25095 ft 450 kts 285°
2026-05-05 12:05 25.41843 54.21576 25567 ft 452 kts 284°
2026-05-05 12:05 25.42658 54.18210 26025 ft 454 kts 284°
2026-05-05 12:05 25.43481 54.14836 26467 ft 456 kts 284°
2026-05-05 12:05 25.44317 54.11442 26917 ft 457 kts 284°
2026-05-05 12:06 25.45153 54.08046 27349 ft 459 kts 284°
2026-05-05 12:06 25.45990 54.04625 27770 ft 460 kts 284°
2026-05-05 12:06 25.46824 54.01198 28161 ft 462 kts 283°
2026-05-05 12:06 25.47659 53.97761 28545 ft 464 kts 283°
2026-05-05 12:07 25.48497 53.94307 28901 ft 465 kts 283°
2026-05-05 12:07 25.49340 53.90832 29238 ft 467 kts 283°
2026-05-05 12:07 25.50183 53.87357 29582 ft 468 kts 283°
2026-05-05 12:07 25.51027 53.83874 29892 ft 469 kts 283°
2026-05-05 12:08 25.51872 53.80387 30218 ft 468 kts 283°
2026-05-05 12:08 25.52712 53.76914 30603 ft 466 kts 283°
2026-05-05 12:08 25.53534 53.73501 31006 ft 464 kts 283°
2026-05-05 12:08 25.54365 53.70010 31401 ft 462 kts 282°
2026-05-05 12:09 25.55142 53.66722 31748 ft 460 kts 282°
2026-05-05 12:09 25.55939 53.63344 32097 ft 459 kts 282°
2026-05-05 12:09 25.56743 53.59933 32454 ft 458 kts 282°
2026-05-05 12:09 25.57546 53.56526 32816 ft 456 kts 282°
2026-05-05 12:10 25.58346 53.53137 33173 ft 454 kts 282°
2026-05-05 12:10 25.59143 53.49750 33527 ft 453 kts 282°
2026-05-05 12:10 25.59939 53.46371 33696 ft 455 kts 282°
2026-05-05 12:10 25.60737 53.42974 33734 ft 456 kts 282°
2026-05-05 12:11 25.62334 53.36200 33751 ft 451 kts 282°
2026-05-05 12:11 25.63922 53.29492 33759 ft 450 kts 282°
2026-05-05 12:12 25.65503 53.22793 33764 ft 449 kts 282°
2026-05-05 12:12 25.67080 53.16088 33763 ft 450 kts 282°
2026-05-05 12:13 25.68657 53.09374 33764 ft 450 kts 282°
2026-05-05 12:13 25.70354 53.02670 33765 ft 453 kts 286°
2026-05-05 12:14 25.72890 52.96298 33764 ft 457 kts 294°
2026-05-05 12:14 25.75885 52.90062 33766 ft 458 kts 294°
2026-05-05 12:15 25.78865 52.83818 33762 ft 458 kts 294°
2026-05-05 12:15 25.81822 52.77560 33759 ft 458 kts 293°
2026-05-05 12:16 25.84770 52.71300 33761 ft 457 kts 293°
2026-05-05 12:16 25.87711 52.65048 33763 ft 456 kts 293°
2026-05-05 12:17 25.90637 52.58791 33762 ft 455 kts 292°
2026-05-05 12:17 25.93431 52.52489 33761 ft 454 kts 291°
2026-05-05 12:18 25.96207 52.46180 33761 ft 454 kts 292°
2026-05-05 12:18 25.98940 52.40011 33764 ft 454 kts 292°
2026-05-05 12:19 26.00795 52.35840 33764 ft 454 kts 292°
2026-05-05 12:19 26.03600 52.29543 33808 ft 455 kts 292°
2026-05-05 12:20 26.05004 52.26387 34047 ft 455 kts 291°
2026-05-05 12:20 26.06402 52.23245 34385 ft 452 kts 291°
2026-05-05 12:20 26.07790 52.20120 34724 ft 449 kts 291°
2026-05-05 12:20 26.09170 52.17009 35016 ft 448 kts 291°
2026-05-05 12:21 26.10545 52.13905 35272 ft 447 kts 291°
2026-05-05 12:21 26.11920 52.10798 35518 ft 447 kts 291°
2026-05-05 12:21 26.13290 52.07698 35671 ft 447 kts 291°
2026-05-05 12:21 26.14667 52.04583 35711 ft 448 kts 291°
2026-05-05 12:22 26.17411 51.98380 35754 ft 446 kts 291°
2026-05-05 12:22 26.20191 51.92229 35761 ft 443 kts 291°
2026-05-05 12:23 26.22913 51.86085 35764 ft 442 kts 291°
2026-05-05 12:23 26.25623 51.79950 35762 ft 441 kts 291°
2026-05-05 12:24 26.28340 51.73861 35765 ft 441 kts 291°
2026-05-05 12:24 26.31072 51.67740 35765 ft 441 kts 291°
2026-05-05 12:25 26.33759 51.61701 35764 ft 441 kts 291°
2026-05-05 12:25 26.36023 51.56607 35764 ft 441 kts 291°
2026-05-05 12:26 26.38554 51.50405 35764 ft 436 kts 284°
2026-05-05 12:26 26.40544 51.44021 35762 ft 436 kts 284°
2026-05-05 12:27 26.42565 51.37633 35761 ft 437 kts 284°
2026-05-05 12:27 26.44639 51.31256 35758 ft 438 kts 285°
2026-05-05 12:28 26.46727 51.24869 35761 ft 438 kts 285°
2026-05-05 12:28 26.48767 51.18462 35759 ft 438 kts 284°
2026-05-05 12:29 26.50795 51.12057 35759 ft 438 kts 284°
2026-05-05 12:29 26.52825 51.05649 35760 ft 438 kts 284°
2026-05-05 12:30 26.54852 50.99247 35758 ft 437 kts 284°
2026-05-05 12:30 26.56878 50.92840 35761 ft 437 kts 284°
2026-05-05 12:31 26.58871 50.86435 35759 ft 436 kts 284°
2026-05-05 12:31 26.60829 50.80024 35758 ft 436 kts 284°
2026-05-05 12:32 26.62789 50.73616 35756 ft 436 kts 284°
2026-05-05 12:32 26.64732 50.67250 35759 ft 435 kts 283°
2026-05-05 12:33 26.66642 50.60835 35750 ft 435 kts 283°
2026-05-05 12:33 26.68546 50.54412 35757 ft 435 kts 283°
2026-05-05 12:34 26.70452 50.47989 35753 ft 435 kts 283°
2026-05-05 12:34 26.72154 50.41520 35750 ft 433 kts 281°
2026-05-05 12:35 26.73796 50.35033 35751 ft 433 kts 281°
2026-05-05 12:35 26.75278 50.28521 35760 ft 429 kts 275°
2026-05-05 12:36 26.75898 50.21921 35741 ft 425 kts 268°
2026-05-05 12:36 26.75941 50.15327 35739 ft 424 kts 267°
2026-05-05 12:37 26.75982 50.08768 35739 ft 424 kts 267°
2026-05-05 12:37 26.76040 50.02174 35725 ft 424 kts 268°
2026-05-05 12:38 26.76098 49.95580 35723 ft 423 kts 267°
2026-05-05 12:38 26.76144 49.88993 35708 ft 423 kts 267°
2026-05-05 12:39 26.76182 49.82409 35706 ft 423 kts 267°
2026-05-05 12:39 26.76218 49.75834 35706 ft 423 kts 267°
2026-05-05 12:40 26.76252 49.69281 35697 ft 423 kts 267°
2026-05-05 12:40 26.76284 49.62775 35699 ft 423 kts 267°
2026-05-05 12:41 26.76313 49.56190 35701 ft 423 kts 267°
2026-05-05 12:41 26.76348 49.49635 35701 ft 424 kts 267°
2026-05-05 12:42 26.76380 49.43042 35700 ft 424 kts 267°
2026-05-05 12:42 26.76409 49.36437 35700 ft 425 kts 267°
2026-05-05 12:43 26.76441 49.29823 35696 ft 425 kts 267°
2026-05-05 12:43 26.76471 49.23201 35702 ft 426 kts 267°
2026-05-05 12:44 26.76498 49.16575 35702 ft 426 kts 267°
2026-05-05 12:44 26.76522 49.09943 35703 ft 426 kts 267°
2026-05-05 12:45 26.76543 49.03359 35704 ft 426 kts 267°
2026-05-05 12:45 26.76560 48.96739 35703 ft 425 kts 267°
2026-05-05 12:46 26.76575 48.90125 35702 ft 424 kts 267°
2026-05-05 12:46 26.76586 48.83529 35704 ft 423 kts 267°
2026-05-05 12:47 26.76595 48.76945 35705 ft 422 kts 266°
2026-05-05 12:47 26.76600 48.70368 35709 ft 421 kts 266°
2026-05-05 12:48 26.76468 48.63862 35706 ft 420 kts 265°
2026-05-05 12:48 26.76255 48.57338 35708 ft 419 kts 265°
2026-05-05 12:49 26.76058 48.50812 35719 ft 419 kts 265°
2026-05-05 12:49 26.75870 48.44296 35711 ft 419 kts 265°
2026-05-05 12:50 26.75682 48.37771 35716 ft 419 kts 265°
2026-05-05 12:50 26.75495 48.31243 35721 ft 420 kts 265°
2026-05-05 12:51 26.75323 48.24749 35724 ft 420 kts 265°
2026-05-05 12:51 26.75149 48.18216 35727 ft 420 kts 265°
2026-05-05 12:52 26.74969 48.11682 35736 ft 419 kts 265°
2026-05-05 12:52 26.74787 48.05166 35739 ft 419 kts 265°
2026-05-05 12:53 26.74601 47.98654 35741 ft 418 kts 265°
2026-05-05 12:53 26.74413 47.92147 35741 ft 418 kts 265°
2026-05-05 12:54 26.74573 47.82430 35751 ft 418 kts 269°
2026-05-05 12:55 26.74918 47.75926 35753 ft 418 kts 269°
2026-05-05 12:55 26.75251 47.69428 35757 ft 417 kts 269°
2026-05-05 12:56 26.75571 47.62995 35757 ft 417 kts 269°
2026-05-05 12:56 26.75888 47.56526 35769 ft 416 kts 269°
2026-05-05 12:57 26.76203 47.50044 35771 ft 416 kts 269°
2026-05-05 12:57 26.76516 47.43563 35776 ft 417 kts 269°
2026-05-05 12:58 26.76891 47.37086 35782 ft 419 kts 272°
2026-05-05 12:58 26.77849 47.30619 35785 ft 421 kts 275°
2026-05-05 12:59 26.78853 47.24197 35791 ft 422 kts 275°
2026-05-05 12:59 26.79850 47.17726 35793 ft 422 kts 275°
2026-05-05 13:00 26.81332 47.08005 35794 ft 422 kts 274°
2026-05-05 13:01 26.83296 46.95041 35804 ft 422 kts 274°
2026-05-05 13:01 26.84266 46.88610 35807 ft 422 kts 274°
2026-05-05 13:02 26.85240 46.82129 35810 ft 421 kts 274°
2026-05-05 13:02 26.86212 46.75647 35802 ft 421 kts 274°
2026-05-05 13:03 26.87178 46.69179 35805 ft 421 kts 274°
2026-05-05 13:03 26.88142 46.62705 35803 ft 421 kts 274°
2026-05-05 13:04 26.89102 46.56234 35811 ft 420 kts 274°
2026-05-05 13:04 26.90051 46.49814 35810 ft 420 kts 274°
2026-05-05 13:05 26.91007 46.43335 35819 ft 420 kts 274°
2026-05-05 13:05 26.91960 46.36866 35823 ft 420 kts 274°
2026-05-05 13:06 26.92923 46.30402 35825 ft 421 kts 274°
2026-05-05 13:06 26.93880 46.23974 35822 ft 421 kts 274°
2026-05-05 13:07 26.94838 46.17510 35820 ft 421 kts 274°
2026-05-05 13:07 26.95793 46.11040 35817 ft 421 kts 274°
2026-05-05 13:08 26.96744 46.04569 35820 ft 421 kts 274°
2026-05-05 13:08 26.97693 45.98095 35824 ft 420 kts 274°
2026-05-05 13:09 26.98637 45.91628 35826 ft 420 kts 274°
2026-05-05 13:09 26.99579 45.85162 35828 ft 420 kts 274°
2026-05-05 13:10 27.00512 45.78733 35828 ft 420 kts 273°
2026-05-05 13:10 27.01447 45.72266 35825 ft 420 kts 273°
2026-05-05 13:11 27.02378 45.65812 35831 ft 419 kts 273°
2026-05-05 13:11 27.03308 45.59341 35834 ft 419 kts 273°
2026-05-05 13:12 27.04226 45.52884 35832 ft 419 kts 273°
2026-05-05 13:12 27.05131 45.46423 35831 ft 419 kts 273°
2026-05-05 13:13 27.05958 45.39996 35826 ft 418 kts 271°
2026-05-05 13:13 27.06664 45.33526 35832 ft 418 kts 271°
2026-05-05 13:14 27.07366 45.27056 35835 ft 418 kts 271°
2026-05-05 13:14 27.08081 45.20577 35838 ft 418 kts 271°
2026-05-05 13:15 27.08794 45.14140 35832 ft 418 kts 271°
2026-05-05 13:15 27.09511 45.07662 35834 ft 418 kts 271°
2026-05-05 13:16 27.10224 45.01186 35839 ft 418 kts 271°
2026-05-05 13:16 27.10814 44.95804 35834 ft 418 kts 271°
2026-05-05 13:17 27.11521 44.89321 35832 ft 418 kts 271°
2026-05-05 13:17 27.12225 44.82844 35831 ft 418 kts 271°
2026-05-05 13:18 27.12927 44.76368 35836 ft 418 kts 271°
2026-05-05 13:18 27.13621 44.69921 35830 ft 419 kts 271°
2026-05-05 13:19 27.14315 44.63431 35829 ft 419 kts 271°
2026-05-05 13:19 27.15009 44.56929 35831 ft 419 kts 271°
2026-05-05 13:20 27.15700 44.50422 35830 ft 419 kts 271°
2026-05-05 13:20 27.16388 44.43915 35832 ft 419 kts 271°
2026-05-05 13:21 27.17073 44.37416 35824 ft 419 kts 271°
2026-05-05 13:21 27.17747 44.30922 35819 ft 418 kts 271°
2026-05-05 13:22 27.18412 44.24479 35829 ft 418 kts 271°
2026-05-05 13:22 27.19079 44.17992 35824 ft 417 kts 271°
2026-05-05 13:23 27.19741 44.11519 35824 ft 417 kts 271°
2026-05-05 13:23 27.20400 44.05053 35831 ft 416 kts 271°
2026-05-05 13:24 27.21057 43.98587 35829 ft 416 kts 271°
2026-05-05 13:24 27.21704 43.92170 35830 ft 416 kts 271°
2026-05-05 13:25 27.22354 43.85708 35830 ft 416 kts 271°
2026-05-05 13:25 27.23000 43.79248 35834 ft 416 kts 271°
2026-05-05 13:26 27.23644 43.72789 35840 ft 416 kts 271°
2026-05-05 13:26 27.24285 43.66324 35836 ft 416 kts 271°
2026-05-05 13:27 27.24922 43.59895 35848 ft 417 kts 271°
2026-05-05 13:27 27.25563 43.53407 35845 ft 417 kts 271°
2026-05-05 13:28 27.26200 43.46923 35853 ft 418 kts 271°
2026-05-05 13:28 27.26835 43.40430 35854 ft 418 kts 271°
2026-05-05 13:29 27.27468 43.33924 35857 ft 418 kts 271°
2026-05-05 13:29 27.28097 43.27425 35857 ft 418 kts 271°
2026-05-05 13:30 27.28724 43.20918 35865 ft 419 kts 271°
2026-05-05 13:30 27.29344 43.14446 35874 ft 419 kts 271°
2026-05-05 13:31 27.29966 43.07929 35869 ft 419 kts 271°
2026-05-05 13:31 27.30584 43.01413 35875 ft 419 kts 271°
2026-05-05 13:32 27.31200 42.94893 35881 ft 419 kts 271°
2026-05-05 13:32 27.31809 42.88409 35877 ft 419 kts 271°
2026-05-05 13:33 27.32419 42.81889 35876 ft 419 kts 271°
2026-05-05 13:33 27.33025 42.75377 35871 ft 418 kts 271°
2026-05-05 13:34 27.33628 42.68856 35878 ft 418 kts 271°
2026-05-05 13:34 27.34224 42.62390 35888 ft 418 kts 271°
2026-05-05 13:35 27.34820 42.55885 35885 ft 418 kts 271°
2026-05-05 13:35 27.35413 42.49383 35880 ft 418 kts 271°
2026-05-05 13:36 27.36002 42.42880 35889 ft 418 kts 271°
2026-05-05 13:36 27.36586 42.36377 35889 ft 417 kts 270°
2026-05-05 13:37 27.37164 42.29875 35891 ft 417 kts 270°
2026-05-05 13:37 27.37740 42.23375 35890 ft 417 kts 270°
2026-05-05 13:38 27.38310 42.16918 35886 ft 417 kts 270°
2026-05-05 13:38 27.38880 42.10416 35885 ft 417 kts 270°
2026-05-05 13:39 27.39447 42.03916 35905 ft 417 kts 270°
2026-05-05 13:39 27.40011 41.97419 35926 ft 417 kts 270°
2026-05-05 13:40 27.40571 41.90928 35947 ft 416 kts 270°
2026-05-05 13:40 27.41125 41.84483 35952 ft 416 kts 270°
2026-05-05 13:41 27.41677 41.78010 35971 ft 415 kts 270°
2026-05-05 13:41 27.41942 41.71567 35969 ft 408 kts 261°
2026-05-05 13:42 27.40977 41.65313 35968 ft 404 kts 254°
2026-05-05 13:42 27.39042 41.59408 35966 ft 402 kts 245°
2026-05-05 13:43 27.36698 41.53665 35948 ft 404 kts 245°
2026-05-05 13:43 27.34372 41.47945 35932 ft 405 kts 245°
2026-05-05 13:44 27.32042 41.42157 35912 ft 407 kts 245°
2026-05-05 13:44 27.29713 41.36353 35894 ft 407 kts 245°
2026-05-05 13:45 27.27381 41.30546 35867 ft 408 kts 245°
2026-05-05 13:45 27.25044 41.24737 35879 ft 407 kts 245°
2026-05-05 13:46 27.22720 41.18967 35875 ft 408 kts 245°
2026-05-05 13:46 27.20380 41.13164 35867 ft 407 kts 245°
2026-05-05 13:47 27.18040 41.07370 35870 ft 407 kts 245°
2026-05-05 13:47 27.15702 41.01590 35862 ft 406 kts 245°
2026-05-05 13:48 27.13381 40.95862 35854 ft 405 kts 245°
2026-05-05 13:48 27.11046 40.90120 35835 ft 404 kts 245°
2026-05-05 13:49 27.08704 40.84364 35837 ft 405 kts 245°
2026-05-05 13:49 27.06360 40.78608 35836 ft 406 kts 245°
2026-05-05 13:50 27.04010 40.72843 35836 ft 407 kts 245°
2026-05-05 13:50 27.01650 40.67063 35846 ft 407 kts 245°
2026-05-05 13:51 26.99284 40.61276 35833 ft 408 kts 245°
2026-05-05 13:51 26.96910 40.55478 35844 ft 409 kts 245°
2026-05-05 13:52 26.94542 40.49703 35832 ft 410 kts 245°
2026-05-05 13:52 26.92154 40.43889 35834 ft 411 kts 245°
2026-05-05 13:53 26.89760 40.38066 35828 ft 411 kts 245°
2026-05-05 13:53 26.87365 40.32251 35830 ft 410 kts 245°
2026-05-05 13:54 26.84972 40.26447 35830 ft 410 kts 245°
2026-05-05 13:54 26.82593 40.20685 35829 ft 410 kts 245°
2026-05-05 13:55 26.80197 40.14892 35826 ft 409 kts 245°
2026-05-05 13:55 26.77807 40.09121 35827 ft 409 kts 245°
2026-05-05 13:56 26.75415 40.03352 35826 ft 408 kts 245°
2026-05-05 13:56 26.73023 39.97593 35827 ft 408 kts 245°
2026-05-05 13:57 26.70628 39.91832 35829 ft 408 kts 245°
2026-05-05 13:57 26.68242 39.86102 35830 ft 409 kts 245°
2026-05-05 13:58 26.65833 39.80327 35831 ft 410 kts 245°
2026-05-05 13:58 26.63419 39.74544 35839 ft 410 kts 244°
2026-05-05 13:59 26.59805 39.65905 35838 ft 411 kts 244°
2026-05-05 14:00 26.56573 39.58194 35847 ft 411 kts 244°
2026-05-05 14:00 26.53736 39.51435 35838 ft 411 kts 244°
2026-05-05 14:01 26.51309 39.45662 35845 ft 410 kts 244°
2026-05-05 14:01 26.48883 39.39897 35857 ft 410 kts 244°
2026-05-05 14:02 26.46458 39.34144 35848 ft 410 kts 244°
2026-05-05 14:02 26.44420 39.28257 35856 ft 410 kts 252°
2026-05-05 14:03 26.43068 39.22068 35858 ft 412 kts 257°
2026-05-05 14:03 26.42415 39.15698 35863 ft 413 kts 261°
2026-05-05 14:04 26.41921 39.09294 35861 ft 414 kts 261°
2026-05-05 14:04 26.41415 39.02893 35867 ft 415 kts 261°
2026-05-05 14:05 26.40889 38.96479 35863 ft 415 kts 261°
2026-05-05 14:05 26.40357 38.90103 35861 ft 415 kts 261°
2026-05-05 14:06 26.39817 38.83681 35871 ft 416 kts 261°
2026-05-05 14:06 26.39273 38.77249 35864 ft 417 kts 261°
2026-05-05 14:07 26.38725 38.70798 35861 ft 417 kts 261°
2026-05-05 14:07 26.38175 38.64349 35870 ft 417 kts 261°
2026-05-05 14:08 26.37625 38.57944 35871 ft 417 kts 261°
2026-05-05 14:08 26.37068 38.51483 35872 ft 418 kts 261°
2026-05-05 14:09 26.36603 38.46125 35864 ft 418 kts 261°
2026-05-05 14:09 26.36042 38.39680 35872 ft 417 kts 261°
2026-05-05 14:10 26.35479 38.33254 35881 ft 416 kts 261°
2026-05-05 14:10 26.34915 38.26836 35892 ft 415 kts 261°
2026-05-05 14:11 26.34344 38.20439 35896 ft 414 kts 261°
2026-05-05 14:11 26.33761 38.14055 35905 ft 413 kts 261°
2026-05-05 14:12 26.33177 38.07668 35909 ft 415 kts 261°
2026-05-05 14:12 26.32590 38.01297 35894 ft 415 kts 261°
2026-05-05 14:13 26.32000 37.94905 35875 ft 414 kts 261°
2026-05-05 14:13 26.31408 37.88523 35883 ft 413 kts 261°
2026-05-05 14:14 26.30816 37.82145 35882 ft 414 kts 261°
2026-05-05 14:14 26.30218 37.75750 35886 ft 415 kts 261°
2026-05-05 14:15 26.29625 37.69383 35889 ft 416 kts 261°
2026-05-05 14:15 26.29026 37.62947 35906 ft 418 kts 261°
2026-05-05 14:16 26.28421 37.56494 35909 ft 419 kts 261°
2026-05-05 14:16 26.27812 37.50018 35904 ft 421 kts 261°
2026-05-05 14:17 26.27199 37.43534 35921 ft 421 kts 261°
2026-05-05 14:17 26.26583 37.37048 35913 ft 422 kts 261°
2026-05-05 14:18 26.25961 37.30544 35917 ft 422 kts 261°
2026-05-05 14:18 26.25333 37.24052 35906 ft 422 kts 261°
2026-05-05 14:19 26.24704 37.17517 35901 ft 424 kts 261°
2026-05-05 14:19 26.24081 37.11046 35906 ft 421 kts 261°
2026-05-05 14:20 26.23452 37.04571 35906 ft 419 kts 261°
2026-05-05 14:20 26.22823 36.98138 35903 ft 417 kts 261°
2026-05-05 14:21 26.22192 36.91721 35917 ft 416 kts 261°
2026-05-05 14:21 26.21558 36.85310 35918 ft 417 kts 261°
2026-05-05 14:22 26.20921 36.78883 35911 ft 418 kts 261°
2026-05-05 14:22 26.20278 36.72431 35914 ft 419 kts 261°
2026-05-05 14:23 26.19631 36.65966 35914 ft 420 kts 261°
2026-05-05 14:23 26.18985 36.59533 35916 ft 421 kts 261°
2026-05-05 14:24 26.18541 36.53034 35904 ft 425 kts 272°
2026-05-05 14:24 26.19198 36.49791 35923 ft 434 kts 283°
2026-05-05 14:24 26.20356 36.46655 35920 ft 441 kts 290°
2026-05-05 14:25 26.22041 36.43754 35895 ft 454 kts 303°
2026-05-05 14:25 26.24225 36.41188 35925 ft 458 kts 306°
2026-05-05 14:25 26.28719 36.36192 35917 ft 459 kts 307°
2026-05-05 14:26 26.33226 36.31135 35918 ft 459 kts 306°
2026-05-05 14:26 26.37683 36.26030 35919 ft 459 kts 306°
2026-05-05 14:27 26.42114 36.20909 35922 ft 458 kts 306°
2026-05-05 14:27 26.46535 36.15790 35921 ft 457 kts 306°
2026-05-05 14:28 26.50784 36.10869 35925 ft 457 kts 306°
2026-05-05 14:28 26.55185 36.05767 35924 ft 456 kts 306°
2026-05-05 14:29 26.59554 36.00696 35927 ft 455 kts 306°
2026-05-05 14:29 26.63945 35.95593 35925 ft 455 kts 306°
2026-05-05 14:30 26.68332 35.90490 35928 ft 455 kts 306°
2026-05-05 14:30 26.72715 35.85383 35928 ft 455 kts 306°
2026-05-05 14:31 26.77102 35.80268 35934 ft 455 kts 306°
2026-05-05 14:31 26.81479 35.75159 35935 ft 455 kts 306°
2026-05-05 14:32 26.85856 35.70045 35935 ft 455 kts 306°
2026-05-05 14:32 26.90234 35.64921 35933 ft 455 kts 306°
2026-05-05 14:33 26.94608 35.59797 35921 ft 455 kts 306°
2026-05-05 14:33 26.98950 35.54704 35928 ft 455 kts 306°
2026-05-05 14:34 27.03315 35.49577 35931 ft 454 kts 306°
2026-05-05 14:34 27.07678 35.44446 35937 ft 454 kts 306°
2026-05-05 14:35 27.12040 35.39311 35936 ft 454 kts 306°
2026-05-05 14:35 27.16401 35.34170 35937 ft 454 kts 306°
2026-05-05 14:36 27.20756 35.29031 35939 ft 454 kts 306°
2026-05-05 14:36 27.25113 35.23881 35936 ft 454 kts 306°
2026-05-05 14:37 27.29464 35.18734 35934 ft 454 kts 306°
2026-05-05 14:37 27.33780 35.13621 35932 ft 454 kts 306°
2026-05-05 14:38 27.38124 35.08470 35933 ft 454 kts 306°
2026-05-05 14:38 27.42467 35.03312 35932 ft 453 kts 306°
2026-05-05 14:39 27.46802 34.98157 35932 ft 453 kts 306°
2026-05-05 14:39 27.51135 34.93009 35928 ft 453 kts 307°
2026-05-05 14:40 27.55705 34.88065 35930 ft 455 kts 309°
2026-05-05 14:40 27.60353 34.83206 35931 ft 455 kts 309°
2026-05-05 14:41 27.64955 34.78370 35929 ft 455 kts 309°
2026-05-05 14:41 27.69567 34.73490 35928 ft 454 kts 309°
2026-05-05 14:42 27.74177 34.68598 35929 ft 454 kts 309°
2026-05-05 14:42 27.78773 34.63715 35935 ft 454 kts 309°
2026-05-05 14:43 27.83365 34.58831 35935 ft 453 kts 309°
2026-05-05 14:43 27.87959 34.53939 35941 ft 453 kts 309°
2026-05-05 14:44 27.92516 34.49080 35934 ft 453 kts 309°
2026-05-05 14:44 27.97095 34.44193 35939 ft 452 kts 309°
2026-05-05 14:45 28.01458 34.39125 35945 ft 445 kts 303°
2026-05-05 14:45 28.05365 34.33693 35962 ft 444 kts 302°
2026-05-05 14:46 28.09263 34.28245 35945 ft 445 kts 302°
2026-05-05 14:46 28.13177 34.22802 35955 ft 446 kts 303°
2026-05-05 14:47 28.17108 34.17346 35956 ft 446 kts 303°
2026-05-05 14:47 28.21035 34.11893 35965 ft 446 kts 303°
2026-05-05 14:48 28.24938 34.06468 35982 ft 447 kts 303°
2026-05-05 14:48 28.26899 34.03738 36270 ft 445 kts 303°
2026-05-05 14:48 28.28846 34.01028 36486 ft 443 kts 302°
2026-05-05 14:49 28.32733 33.95611 36476 ft 443 kts 302°
2026-05-05 14:49 28.36636 33.90154 36496 ft 446 kts 303°
2026-05-05 14:50 28.40546 33.84691 36487 ft 445 kts 302°
2026-05-05 14:50 28.44452 33.79226 36486 ft 444 kts 302°
2026-05-05 14:51 28.48325 33.73798 36494 ft 442 kts 303°
2026-05-05 14:51 28.52192 33.68372 36483 ft 440 kts 302°
2026-05-05 14:52 28.56030 33.62978 36494 ft 437 kts 302°
2026-05-05 14:52 28.59853 33.57596 36513 ft 438 kts 302°
2026-05-05 14:53 28.63685 33.52197 36504 ft 439 kts 302°
2026-05-05 14:53 28.67524 33.46789 36509 ft 439 kts 302°
2026-05-05 14:54 28.71338 33.41410 36506 ft 439 kts 302°
2026-05-05 14:54 28.75168 33.36002 36508 ft 439 kts 302°
2026-05-05 14:55 28.79000 33.30582 36513 ft 438 kts 302°
2026-05-05 14:55 28.82819 33.25173 36497 ft 438 kts 302°
2026-05-05 14:56 28.86644 33.19748 36502 ft 438 kts 302°
2026-05-05 14:56 28.90462 33.14326 36514 ft 437 kts 302°
2026-05-05 14:57 28.94248 33.08943 36519 ft 437 kts 302°
2026-05-05 14:57 28.98077 33.03490 36525 ft 437 kts 302°
2026-05-05 14:58 29.01238 32.98984 36539 ft 437 kts 303°
2026-05-05 14:58 29.05652 32.92684 36537 ft 437 kts 303°
2026-05-05 14:59 29.09450 32.87256 36532 ft 437 kts 303°
2026-05-05 14:59 29.13247 32.81821 36535 ft 437 kts 303°
2026-05-05 15:00 29.16428 32.77262 36542 ft 437 kts 303°
2026-05-05 15:00 29.20220 32.71821 36531 ft 437 kts 303°
2026-05-05 15:01 29.24003 32.66386 36543 ft 436 kts 303°
2026-05-05 15:01 29.27782 32.60950 36552 ft 436 kts 303°
2026-05-05 15:02 29.31546 32.55497 36552 ft 436 kts 302°
2026-05-05 15:02 29.35263 32.50073 36548 ft 435 kts 302°
2026-05-05 15:03 29.38995 32.44620 36551 ft 435 kts 302°
2026-05-05 15:03 29.42727 32.39162 36556 ft 435 kts 302°
2026-05-05 15:04 29.46456 32.33705 36568 ft 435 kts 302°
2026-05-05 15:04 29.50192 32.28231 36572 ft 435 kts 302°
2026-05-05 15:05 29.55788 32.20017 36574 ft 435 kts 302°
2026-05-05 15:06 29.59510 32.14545 36573 ft 435 kts 302°
2026-05-05 15:06 29.63229 32.09069 36571 ft 435 kts 302°
2026-05-05 15:07 29.66946 32.03589 36585 ft 434 kts 302°
2026-05-05 15:07 29.70660 31.98106 36592 ft 434 kts 302°
2026-05-05 15:08 29.74344 31.92659 36572 ft 434 kts 302°
2026-05-05 15:08 29.78046 31.87181 36577 ft 433 kts 302°
2026-05-05 15:09 29.81679 31.81648 36564 ft 432 kts 301°
2026-05-05 15:09 29.85260 31.76071 36566 ft 432 kts 301°
2026-05-05 15:10 29.88807 31.70551 36561 ft 431 kts 301°
2026-05-05 15:10 29.92383 31.64998 36560 ft 431 kts 301°
2026-05-05 15:11 29.95960 31.59442 36560 ft 431 kts 301°
2026-05-05 15:11 29.99529 31.53889 36554 ft 431 kts 301°
2026-05-05 15:12 30.03099 31.48326 36552 ft 430 kts 301°
2026-05-05 15:12 30.06639 31.42803 36551 ft 431 kts 301°
2026-05-05 15:13 30.10453 31.37434 36553 ft 435 kts 308°
2026-05-05 15:13 30.14897 31.32632 36554 ft 438 kts 311°
2026-05-05 15:14 30.19389 31.27862 36548 ft 437 kts 311°
2026-05-05 15:14 30.23856 31.23087 36552 ft 437 kts 311°
2026-05-05 15:15 30.28308 31.18304 36555 ft 436 kts 311°
2026-05-05 15:15 30.32751 31.13518 36554 ft 436 kts 311°
2026-05-05 15:16 30.37191 31.08731 36557 ft 436 kts 311°
2026-05-05 15:16 30.41628 31.03940 36559 ft 435 kts 311°
2026-05-05 15:17 30.46062 30.99147 36559 ft 435 kts 311°
2026-05-05 15:17 30.50453 30.94394 36562 ft 435 kts 311°
2026-05-05 15:18 30.54870 30.89607 36562 ft 435 kts 311°
2026-05-05 15:18 30.59287 30.84814 36565 ft 434 kts 311°
2026-05-05 15:19 30.63704 30.80014 36569 ft 434 kts 311°
2026-05-05 15:19 30.68114 30.75216 36570 ft 434 kts 311°
2026-05-05 15:20 30.72525 30.70410 36572 ft 434 kts 311°
2026-05-05 15:20 30.76930 30.65604 36579 ft 434 kts 311°
2026-05-05 15:21 30.81337 30.60790 36581 ft 434 kts 311°
2026-05-05 15:21 30.85738 30.55976 36581 ft 434 kts 311°
2026-05-05 15:22 30.90136 30.51159 36582 ft 434 kts 311°
2026-05-05 15:22 30.94530 30.46339 36588 ft 434 kts 311°
2026-05-05 15:23 30.98926 30.41510 36589 ft 434 kts 311°
2026-05-05 15:23 31.03296 30.36706 36584 ft 434 kts 311°
2026-05-05 15:24 31.07411 30.31615 36601 ft 427 kts 301°
2026-05-05 15:24 31.10383 30.25668 36585 ft 422 kts 291°
2026-05-05 15:25 31.12287 30.19221 36593 ft 420 kts 285°
2026-05-05 15:25 31.14013 30.12694 36602 ft 422 kts 285°
2026-05-05 15:26 31.15785 30.06160 36606 ft 423 kts 286°
2026-05-05 15:26 31.17673 29.99662 36595 ft 423 kts 294°
2026-05-05 15:27 31.21278 29.94144 36604 ft 434 kts 311°
2026-05-05 15:27 31.23635 29.91908 36592 ft 442 kts 323°
2026-05-05 15:27 31.26297 29.90174 36615 ft 445 kts 326°
2026-05-05 15:28 31.31812 29.86846 36614 ft 446 kts 326°
2026-05-05 15:28 31.37327 29.83500 36607 ft 446 kts 326°
2026-05-05 15:29 31.42810 29.80098 36603 ft 445 kts 326°
2026-05-05 15:29 31.48265 29.76678 36599 ft 444 kts 326°
2026-05-05 15:30 31.53697 29.73263 36595 ft 443 kts 326°
2026-05-05 15:30 31.59120 29.69850 36594 ft 441 kts 326°
2026-05-05 15:31 31.64529 29.66444 36594 ft 441 kts 326°
2026-05-05 15:31 31.69929 29.63039 36594 ft 440 kts 326°
2026-05-05 15:32 31.75323 29.59633 36591 ft 440 kts 326°
2026-05-05 15:32 31.80716 29.56223 36600 ft 441 kts 326°
2026-05-05 15:32 31.83393 29.54527 36734 ft 443 kts 326°
2026-05-05 15:33 31.86106 29.52809 37002 ft 443 kts 326°
2026-05-05 15:33 31.91546 29.49361 37087 ft 444 kts 326°
2026-05-05 15:34 31.96965 29.45923 37085 ft 441 kts 326°
2026-05-05 15:34 32.02360 29.42491 37087 ft 440 kts 326°
2026-05-05 15:35 32.07734 29.39057 37090 ft 439 kts 326°
2026-05-05 15:35 32.13107 29.35617 37091 ft 439 kts 326°
2026-05-05 15:36 32.18481 29.32174 37085 ft 440 kts 326°
2026-05-05 15:36 32.23875 29.28716 37091 ft 441 kts 326°
2026-05-05 15:37 32.29271 29.25260 37093 ft 442 kts 326°
2026-05-05 15:37 32.34679 29.21792 37092 ft 442 kts 326°
2026-05-05 15:38 32.40091 29.18316 37088 ft 443 kts 327°
2026-05-05 15:38 32.45469 29.14856 37085 ft 443 kts 327°
2026-05-05 15:39 32.50885 29.11366 37086 ft 443 kts 327°
2026-05-05 15:39 32.56325 29.07856 37084 ft 442 kts 327°
2026-05-05 15:40 32.61689 29.04391 37083 ft 442 kts 327°
2026-05-05 15:40 32.67083 29.00901 37082 ft 441 kts 327°
2026-05-05 15:41 32.72467 28.97413 37081 ft 441 kts 327°
2026-05-05 15:41 32.77851 28.93920 37087 ft 441 kts 327°
2026-05-05 15:42 32.83226 28.90427 37081 ft 440 kts 327°
2026-05-05 15:42 32.88600 28.86931 37080 ft 440 kts 327°
2026-05-05 15:43 32.93973 28.83431 37080 ft 440 kts 327°
2026-05-05 15:43 32.99348 28.79924 37081 ft 440 kts 327°
2026-05-05 15:44 33.04725 28.76411 37078 ft 441 kts 327°
2026-05-05 15:44 33.10069 28.72915 37077 ft 440 kts 327°
2026-05-05 15:45 33.15439 28.69396 37079 ft 440 kts 327°
2026-05-05 15:45 33.20807 28.65874 37078 ft 440 kts 327°
2026-05-05 15:46 33.26167 28.62353 37073 ft 439 kts 327°
2026-05-05 15:46 33.30617 28.59426 37073 ft 439 kts 327°
2026-05-05 15:47 33.35962 28.55905 37068 ft 438 kts 327°
2026-05-05 15:47 33.41299 28.52384 37070 ft 438 kts 327°
2026-05-05 15:48 33.46629 28.48863 37071 ft 437 kts 327°
2026-05-05 15:48 33.51950 28.45343 37058 ft 436 kts 327°
2026-05-05 15:49 33.57269 28.41819 37055 ft 436 kts 327°
2026-05-05 15:49 33.62540 28.38322 37057 ft 435 kts 327°
2026-05-05 15:50 33.67843 28.34799 37064 ft 435 kts 327°
2026-05-05 15:50 33.73134 28.31277 37064 ft 435 kts 327°
2026-05-05 15:51 33.78436 28.27745 37066 ft 435 kts 327°
2026-05-05 15:51 33.83692 28.24225 37074 ft 434 kts 327°
2026-05-05 15:52 33.88959 28.20666 37062 ft 434 kts 327°
2026-05-05 15:52 33.94230 28.17099 37059 ft 434 kts 327°
2026-05-05 15:53 33.99488 28.13538 37063 ft 434 kts 327°
2026-05-05 15:53 34.04751 28.09969 37062 ft 433 kts 327°
2026-05-05 15:54 34.10008 28.06400 37060 ft 433 kts 327°
2026-05-05 15:54 34.15263 28.02827 37064 ft 433 kts 328°
2026-05-05 15:55 34.20508 27.99256 37058 ft 433 kts 328°
2026-05-05 15:55 34.25751 27.95681 37060 ft 432 kts 328°
2026-05-05 15:56 34.30986 27.92106 37057 ft 432 kts 328°
2026-05-05 15:56 34.36183 27.88552 37055 ft 431 kts 328°
2026-05-05 15:57 34.41406 27.84974 37056 ft 431 kts 328°
2026-05-05 15:57 34.46626 27.81394 37052 ft 430 kts 328°
2026-05-05 15:58 34.51841 27.77812 37051 ft 430 kts 328°
2026-05-05 15:58 34.57041 27.74232 37049 ft 429 kts 328°
2026-05-05 15:59 34.62229 27.70646 37050 ft 429 kts 328°
2026-05-05 15:59 34.67419 27.67054 37050 ft 429 kts 328°
2026-05-05 16:00 34.72606 27.63458 37053 ft 429 kts 328°
2026-05-05 16:00 34.77795 27.59856 37054 ft 430 kts 328°
2026-05-05 16:01 34.82984 27.56249 37046 ft 429 kts 328°
2026-05-05 16:01 34.88172 27.52637 37048 ft 429 kts 328°
2026-05-05 16:02 34.93358 27.49021 37056 ft 429 kts 328°
2026-05-05 16:02 34.98510 27.45424 37047 ft 430 kts 328°
2026-05-05 16:03 35.03695 27.41798 37050 ft 430 kts 328°
2026-05-05 16:03 35.08885 27.38164 37054 ft 430 kts 328°
2026-05-05 16:04 35.14072 27.34525 37041 ft 430 kts 328°
2026-05-05 16:04 35.19264 27.30879 37038 ft 431 kts 328°
2026-05-05 16:05 35.24459 27.27224 37050 ft 431 kts 328°
2026-05-05 16:05 35.29662 27.23559 37050 ft 431 kts 328°
2026-05-05 16:06 35.34867 27.19885 37050 ft 432 kts 328°
2026-05-05 16:06 35.40076 27.16205 37049 ft 432 kts 328°
2026-05-05 16:07 35.45304 27.12565 37051 ft 432 kts 329°
2026-05-05 16:07 35.50597 27.09029 37049 ft 433 kts 329°
2026-05-05 16:08 35.55857 27.05525 37051 ft 433 kts 329°
2026-05-05 16:08 35.61141 27.01984 37051 ft 432 kts 329°
2026-05-05 16:09 35.66415 26.98434 37054 ft 432 kts 329°
2026-05-05 16:09 35.71692 26.94872 37048 ft 432 kts 329°
2026-05-05 16:10 35.76968 26.91305 37043 ft 432 kts 329°
2026-05-05 16:10 35.82234 26.87740 37049 ft 432 kts 329°
2026-05-05 16:11 35.87510 26.84163 37051 ft 432 kts 329°
2026-05-05 16:12 35.98012 26.77026 37048 ft 433 kts 329°
2026-05-05 16:13 36.11226 26.68015 37048 ft 433 kts 329°
2026-05-05 16:13 36.16502 26.64408 37053 ft 433 kts 329°
2026-05-05 16:14 36.27051 26.57178 37052 ft 433 kts 329°
2026-05-05 16:15 36.37610 26.49919 37053 ft 434 kts 329°
2026-05-05 16:16 36.48129 26.42664 37051 ft 434 kts 329°
2026-05-05 16:17 36.56047 26.37189 37049 ft 434 kts 329°
2026-05-05 16:18 36.63977 26.31692 37052 ft 435 kts 329°
2026-05-05 16:19 36.71905 26.26184 37053 ft 435 kts 329°
2026-05-05 16:19 36.79840 26.20656 37049 ft 435 kts 329°
2026-05-05 16:20 36.90419 26.13268 37043 ft 435 kts 329°
2026-05-05 16:22 37.03604 26.04025 37046 ft 436 kts 329°
2026-05-05 16:23 37.14179 25.96586 37046 ft 436 kts 329°
2026-05-05 16:23 37.22133 25.90974 37051 ft 437 kts 329°
2026-05-05 16:24 37.27438 25.87224 37050 ft 437 kts 329°
2026-05-05 16:25 37.35369 25.81606 37051 ft 438 kts 329°
2026-05-05 16:25 37.43333 25.75951 37053 ft 438 kts 330°
2026-05-05 16:26 37.53950 25.68390 37052 ft 438 kts 330°
2026-05-05 16:27 37.59268 25.64593 37051 ft 438 kts 330°
2026-05-05 16:27 37.64573 25.60799 37049 ft 438 kts 330°
2026-05-05 16:28 37.69881 25.56997 37049 ft 439 kts 330°
2026-05-05 16:28 37.75189 25.53189 37048 ft 439 kts 330°
2026-05-05 16:29 37.80464 25.49398 37049 ft 439 kts 330°
2026-05-05 16:29 37.85773 25.45576 37047 ft 439 kts 330°
2026-05-05 16:30 37.91089 25.41742 37046 ft 440 kts 330°
2026-05-05 16:30 37.96405 25.37903 37050 ft 440 kts 330°
2026-05-05 16:31 38.01726 25.34053 37048 ft 440 kts 330°
2026-05-05 16:31 38.07054 25.30191 37051 ft 441 kts 330°
2026-05-05 16:32 38.12381 25.26324 37048 ft 441 kts 330°
2026-05-05 16:32 38.17713 25.22447 37050 ft 442 kts 330°
2026-05-05 16:33 38.23047 25.18561 37050 ft 442 kts 329°
2026-05-05 16:33 38.28352 25.14690 37047 ft 443 kts 330°
2026-05-05 16:34 38.33701 25.10780 37235 ft 444 kts 329°
2026-05-05 16:34 38.36379 25.08821 37589 ft 442 kts 329°
2026-05-05 16:34 38.39042 25.06870 37931 ft 441 kts 329°
2026-05-05 16:35 38.44382 25.02953 38038 ft 443 kts 329°
2026-05-05 16:35 38.48816 24.99696 38040 ft 441 kts 329°
2026-05-05 16:36 38.54117 24.95796 38042 ft 439 kts 329°
2026-05-05 16:36 38.59396 24.91905 38053 ft 438 kts 329°
2026-05-05 16:37 38.64669 24.88012 38051 ft 438 kts 329°
2026-05-05 16:37 38.69948 24.84108 38057 ft 439 kts 329°
2026-05-05 16:38 38.75238 24.80188 38051 ft 440 kts 329°
2026-05-05 16:38 38.80544 24.76251 38052 ft 441 kts 329°
2026-05-05 16:39 38.85861 24.72298 38044 ft 442 kts 329°
2026-05-05 16:39 38.91194 24.68326 38047 ft 443 kts 329°
2026-05-05 16:40 38.96530 24.64346 38044 ft 444 kts 329°
2026-05-05 16:40 39.01878 24.60348 38045 ft 444 kts 329°
2026-05-05 16:41 39.07185 24.56376 38043 ft 445 kts 329°
2026-05-05 16:41 39.12531 24.52366 38040 ft 445 kts 329°
2026-05-05 16:42 39.17874 24.48352 38039 ft 445 kts 329°
2026-05-05 16:42 39.23194 24.44348 38035 ft 445 kts 329°
2026-05-05 16:43 39.28572 24.40293 38040 ft 445 kts 329°
2026-05-05 16:43 39.33918 24.36254 38038 ft 445 kts 329°
2026-05-05 16:44 39.39257 24.32215 38036 ft 445 kts 329°
2026-05-05 16:44 39.44603 24.28162 38030 ft 445 kts 329°
2026-05-05 16:45 39.49944 24.24106 38034 ft 445 kts 329°
2026-05-05 16:45 39.55287 24.20041 38032 ft 446 kts 329°
2026-05-05 16:46 39.60635 24.15965 38027 ft 446 kts 329°
2026-05-05 16:46 39.65989 24.11877 38032 ft 446 kts 329°
2026-05-05 16:47 39.71340 24.07783 38031 ft 447 kts 329°
2026-05-05 16:47 39.76701 24.03676 38031 ft 447 kts 329°
2026-05-05 16:48 39.82036 23.99579 38027 ft 448 kts 329°
2026-05-05 16:48 39.87402 23.95452 38026 ft 448 kts 329°
2026-05-05 16:49 39.92778 23.91310 38025 ft 449 kts 329°
2026-05-05 16:49 39.98154 23.87159 38024 ft 449 kts 329°
2026-05-05 16:50 40.03534 23.82999 38022 ft 450 kts 329°
2026-05-05 16:50 40.08920 23.78825 38023 ft 450 kts 329°
2026-05-05 16:51 40.14306 23.74644 38016 ft 450 kts 329°
2026-05-05 16:51 40.19699 23.70449 38018 ft 451 kts 329°
2026-05-05 16:52 40.25087 23.66251 38012 ft 451 kts 329°
2026-05-05 16:52 40.30438 23.62074 38017 ft 451 kts 329°
2026-05-05 16:53 40.35831 23.57856 38006 ft 451 kts 329°
2026-05-05 16:53 40.41219 23.53634 38009 ft 452 kts 329°